Location: Arran
(51.9410°N, 101.7372°W)
Time: 06:59:11
(UTC+00:00)

AO-85 - Pass Details

Date: 30 November 2023
Orbit: 516 x 753 km, 64.8° (Epoch: 04 January)

Event Time Altitude Azimuth Distance (km) Brightness Sun altitude
Rises 23:20:53 0° 275° (W) 2,684 ? -6.2°
Reaches altitude 10° 23:23:32 10° 293° (WNW) 1,823 ? -6.5°
Maximum altitude 23:26:32 19° 341° (NNW) 1,362 ? -7.0°
Drops below altitude 10° 23:29:40 10° 28° (NNE) 1,911 ? -7.4°
Enters shadow 23:30:40 - 36° (NE) 2,219 ? -7.5°
